Ogden, UT

9:01 AM MST on November 18, 2019 (GMT -0700)
Ogden-Hinckley

Weather History for KOGD - September, 2019

Change the Weather History Date:

Saturday, September 21, 2019

  Actual Average Record
Temperature  
Mean Temperature 52 °F -  
Max Temperature 62 °F 73 °F 88 °F (1939)
Min Temperature 43 °F 44 °F 32 °F (1978)
Degree Days  
Heating Degree Days 14    
Growing Degree Days 2 (Base 50)    
Moisture  
Dew Point 37 °F    
Average Humidity 63    
Maximum Humidity 89    
Minimum Humidity 33    
Precipitation  
Precipitation 0.00 in - - ()
Sea Level Pressure  
Sea Level Pressure 30.09 in    
Wind  
Wind Speed 5 mph (South)    
Max Wind Speed 8 mph    
Max Gust Speed -    
Visibility 10 miles    
Events      
Averages and records for this station are not official NWS values.
T = Trace of Precipitation, MM = Missing Value Source: NWS Daily Summary

Daily Weather History Graph

Daily Weather History Graph

Search for Another Location

Airport or City:

Astronomy

Sep. 21, 2019 Rise Set
Actual Time 7:14 AM MDT 7:27 PM MDT
Civil Twilight 6:46 AM MDT 7:54 PM MDT
Nautical Twilight 6:14 AM MDT 8:26 PM MDT
Astronomical Twilight 5:41 AM MDT 8:59 PM MDT
Moon No Moon Rise 2:27 PM MDT (9/21)
Length of Visible Light 13h 07m
Length of Day
12h 12m
Waning Gibbous, 54% of the Moon is Illuminated
Sep 21
Waning Gibbous
Sep 21
Last Quarter
Sep 28
New
Oct 5
First Quarter
Oct 13
Full

Hourly Weather History & Observations

Time (MDT) Temp. Windchill Dew Point Humidity Pressure Visibility Wind Dir Wind Speed Gust Speed Precip Events Conditions
12:53 AM 46.0 °F 42.5 °F 42.1 °F 86% 30.05 in 10.0 mi SSE 6.9 mph - N/A   Clear
1:53 AM 45.0 °F 42.6 °F 41.0 °F 86% 30.08 in 10.0 mi South 4.6 mph - N/A   Mostly Cloudy
2:53 AM 45.0 °F 43.5 °F 41.0 °F 86% 30.08 in 10.0 mi ESE 3.5 mph - N/A   Clear
3:53 AM 45.0 °F 42.6 °F 41.0 °F 86% 30.08 in 10.0 mi South 4.6 mph - N/A   Mostly Cloudy
4:53 AM 45.0 °F 41.8 °F 41.0 °F 86% 30.08 in 10.0 mi South 5.8 mph - N/A   Clear
5:53 AM 44.1 °F 40.8 °F 39.9 °F 85% 30.09 in 10.0 mi South 5.8 mph - N/A   Clear
6:53 AM 43.0 °F 39.5 °F 39.9 °F 89% 30.10 in 10.0 mi South 5.8 mph - N/A   Clear
7:53 AM 43.0 °F - 39.9 °F 89% 30.13 in 10.0 mi Calm Calm - N/A   Mostly Cloudy
8:53 AM 46.9 °F - 41.0 °F 80% 30.14 in 10.0 mi South 3.5 mph - N/A   Clear
9:53 AM 52.0 °F - 41.0 °F 66% 30.13 in 10.0 mi South 6.9 mph - N/A   Partly Cloudy
10:53 AM 53.1 °F - 39.9 °F 61% 30.12 in 10.0 mi Calm Calm - N/A   Clear
11:53 AM 57.0 °F - 41.0 °F 55% 30.10 in 10.0 mi Calm Calm - N/A   Mostly Cloudy
12:53 PM 59.0 °F - 39.0 °F 48% 30.10 in 10.0 mi North - - N/A   Overcast
1:53 PM 57.9 °F - 34.0 °F 41% 30.09 in 10.0 mi West 8.1 mph - N/A   Mostly Cloudy
2:53 PM 60.1 °F - 30.9 °F 33% 30.08 in 10.0 mi Variable 4.6 mph - N/A   Clear
3:53 PM 60.1 °F - 33.1 °F 36% 30.06 in 10.0 mi Variable 4.6 mph - N/A   Scattered Clouds
4:53 PM 60.1 °F - 30.9 °F 33% 30.05 in 10.0 mi WSW 3.5 mph - N/A   Clear
5:53 PM 60.1 °F - 30.9 °F 33% 30.06 in 10.0 mi NNW 4.6 mph - N/A   Partly Cloudy
6:53 PM 59.0 °F - 30.0 °F 33% 30.06 in 10.0 mi ESE 4.6 mph - N/A   Clear
7:53 PM 54.0 °F - 33.1 °F 45% 30.08 in 10.0 mi SW 3.5 mph - N/A   Clear
8:53 PM 52.0 °F - 37.9 °F 59% 30.09 in 10.0 mi South 4.6 mph - N/A   Overcast
9:53 PM 51.1 °F - 37.9 °F 61% 30.09 in 10.0 mi SSE 5.8 mph - N/A   Overcast
10:53 PM 48.0 °F - 36.0 °F 63% 30.09 in 10.0 mi South 6.9 mph - N/A   Clear
11:53 PM 46.9 °F - 35.1 °F 63% 30.09 in 10.0 mi South 4.6 mph - N/A   Clear